Location: Gwatt
(46.7204°N, 7.6223°E)
Time: 00:19:52
(UTC+00:00)

Vanguard 3 - Pass Details

Date: 30 January 2021
Orbit: 508 x 3262 km, 33.4° (Epoch: 03 March)

Event Time Altitude Azimuth Distance (km) Brightness Sun altitude
Exits shadow 03:29:32 28° 162° (SSE) 2,106 9.2 -35.4°
Drops below altitude 10° 03:36:24 10° 120° (ESE) 3,943 11.1 -34.2°
Sets 03:41:11 0° 111° (ESE) 5,458 12.2 -33.4°
